Weather Roundup
Issued by NWS Chicago, IL

Home | Current Version | Previous Version | Text Only | Print | Product List | Glossary Off
Versions: 1 2 3 4 5 6 7 8 9 10 11 12 13 14 15 16 17 18 19 20 21 22 23 24 25 26 27 28 29 30 31 32 33 34 35 36 37 38 39 40 41 42 43 44 45 46 47 48 49 50

000
NZUS59 KLOT 011910
HRRLOT

CHICAGO AREA WEATHER ROUNDUP
NATIONAL WEATHER SERVICE CHICAGO/ROMEOVILLE IL
200 PM CDT MON SEP 01 2014

NOTE: "FAIR" INDICATES FEW OR NO CLOUDS BELOW 12,000 FEET WITH NO
SIGNIFICANT WEATHER AND/OR OBSTRUCTIONS TO VISIBILITY.

* THESE STATIONS ARE NOT UNDER NWS QUALITY CONTROL. THEY ALSO MAY NOT
  REPORT WEATHER SUCH AS PRECIPITATION OR FOG.

ILZ005-006-012>014-019>023-012000-
NORTHEAST ILLINOIS

CITY           SKY/WX    TMP DP  RH WIND       PRES   REMARKS
OHARE          MOSUNNY   81  63  54 SW17G29   29.77S HX  82
MIDWAY         PTSUNNY   83  67  58 SW18G29   29.77F HX  85
AURORA         MOSUNNY   81  66  60 SW10      29.79S HX  83
LANSING*         N/A    N/A N/A N/A MISG        N/A
JOLIET*        SUNNY     82  64  54 SW10G18   29.80F HX  83
WAUKEGAN       MOSUNNY   80  67  64 SW16G22   29.74S HX  82
DUPAGE AIRPORT MOSUNNY   80  65  59 W14G21    29.77F HX  82
WHEELING       MOSUNNY   82  64  54 SW15      29.77S HX  83
KANKAKEE*      CLOUDY    82  72  70 SW13      29.81F HX  87
MORRIS*        SUNNY     82  67  60 SW12      29.79F HX  84
LEWIS AIRPORT* MOSUNNY   81  65  57 W16       29.79S HX  82
NORTHERLY IS     N/A     82  63  52 W15         N/A  HX  83
$$

WIZ051-052-058>065-066-070>072-012000-
SOUTHEAST WISCONSIN

CITY           SKY/WX    TMP DP  RH WIND       PRES   REMARKS
MILWAUKEE      PTSUNNY   81  63  54 W20G25    29.71F HX  82
KENOSHA*       MOSUNNY   81  68  64 SW14G24   29.73F HX  84
RACINE*        SUNNY     83  65  54 SW12G21   29.74S HX  85
BURLINGTON     PTSUNNY   77  64  63 SW17G24   29.73F
WAUKESHA       PTSUNNY   77  63  61 SW14      29.73S
WEST BEND      PTSUNNY   77  63  61 W10G22    29.71R
$$

INZ001>003-010>013-019-020-012000-
NORTHWEST INDIANA

CITY           SKY/WX    TMP DP  RH WIND       PRES   REMARKS
GARY*          PTSUNNY   82  68  61 SW14G28   29.79S HX  85
MICHIGAN CITY* NOT AVBL
RENSSELAER*    NOT AVBL
VALPARAISO     PTSUNNY   83  68  60 SW22G35   29.81R HX  86
$$

LMZ740>746-012000-
SOUTHERN LAKE MICHIGAN

STATION/POSITION TIME  SKY/WX   TEMP WIND        PRES    VSBY
                                AIR  DIR/SP/G
                 (UTC)          (F)  (DEG/KT/KT) (MB)    (MI)
HARRISON CRIB    1900            78  210/ 18/ 24   N/A
BURNHAM HARBOR   1900            82  250/  7/ 14   N/A
CALUMET HARBOR   1900            82  230/  8/ 14 1007.2S
BURNS HARBOR     NOT AVBL
MICHIGAN CITY    1900            77  220/ 15/ 17   N/A
$$

ABBREVIATIONS USED IN REMARKS
   TC - TEMPERATURE IN CELSIUS
  WCI - WIND CHILL INDEX
   HX - HEAT INDEX
  VSB - VISIBILITY
$$


USA.gov is the U.S. government's official web portal to all federal, state and local government web resources and services.